Location: Newark
(37.3144°N, 138.7950°E)
Time: 22:33:33
(UTC+00:00)

ISS - Visible Passes

Search period start: 21 August 2019 00:00
Search period end: 31 August 2019 00:00
Orbit: 410 x 421 km, 51.6° (Epoch: 22 August)

Date Brightness Start Highest point End Pass type
(mag) Time Alt. Az. Time Alt. Az. Time Alt. Az.
24 Aug -1.0 19:06:42 10° SSE 19:08:26 13° SE 19:10:09 10° E visible
26 Aug -2.8 19:04:55 15° SSW 19:07:19 41° SE 19:10:29 10° ENE visible
27 Aug -1.9 18:18:26 22° SE 18:18:39 22° SE 18:21:18 10° ENE visible
28 Aug -3.6 19:04:44 26° WSW 19:06:22 60° NW 19:09:41 10° NE visible
29 Aug -3.2 18:18:04 57° E 18:18:04 57° E 18:20:54 10° NE visible
30 Aug -0.6 17:31:20 14° ENE 17:31:20 14° ENE 17:31:55 10° ENE visible
30 Aug -2.1 19:04:13 18° WNW 19:05:36 24° NNW 19:08:24 10° NNE visible
